Weather History for Hibbing, MN

Change the Weather History Date:

Sunday, December 4, 2011

  Actual Average Record
Temperature  
Mean Temperature 14 °F -  
Max Temperature 21 °F 23 °F 51 °F (1996)
Min Temperature 6 °F 6 °F -17 °F (1991)
Degree Days  
Heating Degree Days 50    
Moisture  
Dew Point 10 °F    
Average Humidity 76    
Maximum Humidity 87    
Minimum Humidity 60    
Precipitation  
Precipitation 0.00 in - - ()
Sea Level Pressure  
Sea Level Pressure 30.19 in    
Wind  
Wind Speed 11 mph (NNW)    
Max Wind Speed 18 mph    
Max Gust Speed -    
Visibility 10 miles    
Events Snow    
Averages and records for this station are not official NWS values.
T = Trace of Precipitation, MM = Missing Value Source: NWS Daily Summary

Daily Weather History Graph

Daily Weather History Graph

Search for Another Location

Airport:

Trip Planner

Search our weather history database for the weather conditions in past years. The results will help you decide how hot, cold, wet, or windy it might be!

Date:

Astronomy

Dec. 04, 2011 Rise Set
Actual Time 7:41 AM CST 4:21 PM CST
Civil Twilight 7:05 AM CST 4:56 PM CST
Nautical Twilight 6:27 AM CST 5:35 PM CST
Astronomical Twilight 5:50 AM CST 6:12 PM CST
Moon 1:08 PM CST (12/4) 1:48 AM CST (12/4)
Length of Visible Light 9h 51m
Length of Day
8h 40m
Waxing Gibbous, 72% of the Moon is Illuminated
Dec 4
Waxing Gibbous
Dec 10
Full
Dec 17
Last Quarter
Dec 24
New
Jan 1
First Quarter

Hourly Weather History & Observations

Time (CST) Temp. Windchill Dew Point Humidity Pressure Visibility Wind Dir Wind Speed Gust Speed Precip Events Conditions
12:53 AM 19.4 °F 6.0 °F 14.0 °F 80% 29.95 in 10.0 mi NNW 13.8 mph - N/A   Overcast
1:51 AM 17.6 °F 1.7 °F 12.2 °F 79% 29.96 in 10.0 mi NNW 18.4 mph - N/A   Overcast
1:53 AM 18.0 °F 3.1 °F 12.9 °F 81% 30.03 in 10.0 mi NNW 16.1 mph - N/A   Overcast
2:53 AM 18.0 °F 5.4 °F 12.9 °F 81% 30.04 in 10.0 mi NNW 11.5 mph - N/A   Overcast
3:53 AM 18.0 °F 4.8 °F 12.9 °F 81% 30.04 in 10.0 mi North 12.7 mph - N/A   Overcast
4:53 AM 18.0 °F 4.8 °F 12.9 °F 81% 30.07 in 10.0 mi North 12.7 mph - N/A   Overcast
5:53 AM 17.1 °F 5.8 °F 12.0 °F 81% 30.09 in 10.0 mi NNW 9.2 mph - N/A   Overcast
6:53 AM 17.1 °F 5.0 °F 12.0 °F 81% 30.10 in 10.0 mi NNW 10.4 mph - N/A   Overcast
7:53 AM 16.0 °F 4.4 °F 10.9 °F 81% 30.12 in 10.0 mi NNW 9.2 mph - N/A   Overcast
8:53 AM 15.1 °F 4.2 °F 10.0 °F 80% 30.15 in 6.0 mi NNW 8.1 mph - 0.00 in Snow Light Snow
9:53 AM 16.0 °F 2.3 °F 10.0 °F 77% 30.18 in 6.0 mi NNW 12.7 mph - 0.00 in Snow Light Snow
10:43 AM 17.6 °F 5.0 °F 10.4 °F 73% 30.12 in 10.0 mi NW 11.5 mph - 0.00 in   Overcast
10:53 AM 17.1 °F 4.3 °F 10.0 °F 74% 30.20 in 10.0 mi NNW 11.5 mph - 0.00 in   Overcast
11:31 AM 17.6 °F 5.7 °F 10.4 °F 73% 30.12 in 10.0 mi NW 10.4 mph - N/A   Partly Cloudy
11:53 AM 19.0 °F 7.5 °F 10.0 °F 68% 30.20 in 10.0 mi NNW 10.4 mph - 0.00 in   Clear
12:53 PM 21.0 °F 13.4 °F 10.0 °F 63% 30.20 in 10.0 mi North 5.8 mph - N/A   Clear
1:53 PM 21.9 °F 12.5 °F 10.0 °F 60% 30.21 in 10.0 mi North 8.1 mph - N/A   Clear
2:53 PM 21.9 °F 12.5 °F 10.0 °F 60% 30.22 in 10.0 mi North 8.1 mph - N/A   Clear
3:53 PM 21.0 °F 13.4 °F 9.0 °F 60% 30.24 in 10.0 mi North 5.8 mph - N/A   Clear
4:53 PM 18.0 °F 12.7 °F 8.1 °F 65% 30.28 in 10.0 mi North 3.5 mph - N/A   Clear
5:53 PM 12.0 °F - 7.0 °F 80% 30.32 in 10.0 mi Calm Calm - N/A   Clear
6:53 PM 12.0 °F 5.9 °F 6.1 °F 77% 30.35 in 10.0 mi North 3.5 mph - N/A   Clear
7:53 PM 15.8 °F 6.1 °F 8.6 °F 73% 30.26 in 10.0 mi North 6.9 mph - N/A   Clear
8:53 PM 14.0 °F 5.1 °F 8.1 °F 77% 30.38 in 10.0 mi North 5.8 mph - N/A   Clear
9:53 PM 8.1 °F -2.0 °F 3.9 °F 83% 30.41 in 10.0 mi NNW 5.8 mph - N/A   Clear
10:53 PM 8.1 °F 1.4 °F 5.0 °F 87% 30.42 in 10.0 mi North 3.5 mph - N/A   Clear
11:53 PM 6.1 °F -0.9 °F 3.0 °F 87% 30.44 in 10.0 mi NNW 3.5 mph - N/A   Clear